FENGYUN 1C DEB, 30703

Orbit data source: Space-Track

FENGYUN 1C DEB, 30703 is space debris in SSO originally from a launch on Mon, 10 May 1999 UTC launched from the Taiyaun Space Center, China (TSC). Fengyun 1C debris stems from the Chinese weather satellite Fengyun-1C, which was intentionally destroyed by a Chinese anti-satellite missile in 2007. This event dramatically increased the amount of space debris, with thousands of trackable fragments posing hazards to satellites and human spaceflight. The Fengyun 1C debris cloud has become a focal point in discussions about space sustainability and the need for international regulations to prevent the creation of new debris.

Loading next visibility...
Identifier
30703, 1999-025ARM
Orbit
SSO
Country
Flag of CNCN / PRC
Related business
Manufacturer
Unknown
Mission
Spacecraft
Bus & Motor
Unknown
Mass
Unknown
Launch date (UTC)
1999-05-10 (27 years ago)
Launch vehicle
Unknown
Launch site
Taiyaun Space Center, China (TSC)
Object type
Payload
Rocket body
Debris
Shape & HBR
Unknown shape, 0.1 m
Radar Cross Section
Medium (>0.1 m² and <1 m²)

Expand to show TLE details & history
Last TLE update: 20 hours ago

TLE from 20 hours ago
0 FENGYUN 1C DEB
1 30703U 99025ARM 26228.27401480  .00001084  00000-0  49488-3 0  9993
2 30703  99.1566 226.6555 0114884 311.5507  58.7142 14.20345133   340
Epoch: 2026-08-16T06:34Z
TLE epoch observation values (Epoch: 2026-08-16T06:34:34.878Z)
Latitude
11.20416°
Longitude
161.51737°
Altitude
784.052 km
Speed
7.485 km/s
True Right ascension
14h 59m 20s
True Declination
11° 08' 21"
Sunlit
Object was in daylight at epoch
Visualization orbit readout
Latitude
Unknown
Longitude
Unknown
Altitude
Unknown
Speed
Unknown
Apparent Right ascension
Unknown
Apparent Declination
Unknown
Sunlit
N/A
Visualization observer readout
Local Sidereal Time
16:57:30
Azimuth
Unknown
Elevation
Unknown
Doppler factor
Unknown
Orbital elements
Apogee altitude
904.076 km
Perigee altitude
738.655 km
Semi-major axis
7,199.502 km
Eccentricity
0.01149
Inclination
99.1566°
RAAN
226.6555°
Arg. of periapsis
311.5507°
True anomaly
59.84762°
Mean anomaly
58.7142°
Eccentric anomaly
59.28007°
Mean motion
3.55295 °/min
Orbital period
101.32 mins
BSTAR
0.00049488
Loading maneuver chart data...
Computing Atmospheric mass density...
Loading historical data...
Loading historical data...
Loading historical data...
Loading historical data...
Loading historical data...
Loading historical data...
Loading historical data...

Documentation

Showing up to 5 results
|